Location: Del Amo
(33.8464°N, 118.2104°W)
Time: 07:14:20
(UTC+00:00)

Vanguard 1 Rocket - Pass Details

Date: 22 September 2024
Orbit: 650 x 4218 km, 34.3° (Epoch: 09 October)

Event Time Altitude Azimuth Distance (km) Brightness Sun altitude
Rises 06:33:00 0° 179° (S) 3,577 - -52.0°
Reaches altitude 10° 06:37:01 10° 151° (SSE) 3,095 - -52.5°
Maximum altitude 06:40:19 13° 125° (SE) 3,272 - -52.8°
Drops below altitude 10° 06:44:24 10° 101° (E) 4,044 - -53.2°
Exits shadow 06:51:23 - 79° (E) 5,899 11.5 -53.8°
Sets 06:51:34 0° 79° (ENE) 5,951 11.5 -53.8°
